Вернуться в каталог

STARLINK-6277

АктивенСвязьVLEO
NORAD 56399·PAYLOAD·🇺🇸 United States

Запущен May 4, 2023 с Cape Canaveral Space Force Station

Loading…

Ближайшие Пролёты (ближайшие 24 часа)

TLE

СвежийSource: CelesTrak SupGP

Эпоха: Sep 14, 2026, 21:33 UTC

1 56399C 23061AB  26257.89840278 -.00005213  00000+0 -18875-3 0  2573
2 56399  43.0028 198.2685 0001454 259.6205 124.1536 15.27589557    10

Отслеживайте STARLINK-6277 в реальном времени с AllMySat

Download on the App Store